St. Joseph, KS

4:16 PM CDT on September 16, 2019 (GMT -0500)
Rosecrans Memorial

Weather History for KSTJ - August, 2019

Change the Weather History Date:

Monday, August 19, 2019

  Actual Average Record
Temperature  
Mean Temperature 80 °F 75 °F  
Max Temperature 92 °F 86 °F 107 °F (1936)
Min Temperature 67 °F 64 °F 48 °F (1967)
Degree Days  
Heating Degree Days 0 0  
Month to date heating degree days 0 0  
Since 1 June heating degree days 1 9  
Since 1 July heating degree days 0 1  
Cooling Degree Days 15 10  
Month to date cooling degree days 228 217  
Year to date cooling degree days 1049 971  
Since 1 June cooling degree days 948 858  
Growing Degree Days 30 (Base 50)    
Moisture  
Dew Point 71 °F    
Average Humidity 78    
Maximum Humidity 93    
Minimum Humidity 63    
Precipitation  
Precipitation 0.00 in 0.14 in 3.71 in (2000)
Month to date precipitation 3.08 2.30  
Year to date precipitation 25.16 24.62  
Sea Level Pressure  
Sea Level Pressure 29.95 in    
Wind  
Wind Speed 5 mph (ENE)    
Max Wind Speed 13 mph    
Max Gust Speed 17 mph    
Visibility 6 miles    
Events Fog    
T = Trace of Precipitation, MM = Missing Value Source: NWS Daily Summary

Daily Weather History Graph

Daily Weather History Graph

Search for Another Location

Airport or City:

Astronomy

Aug. 19, 2019 Rise Set
Actual Time 6:35 AM CDT 8:10 PM CDT
Civil Twilight 6:06 AM CDT 8:39 PM CDT
Nautical Twilight 5:32 AM CDT 9:13 PM CDT
Astronomical Twilight 4:55 AM CDT 9:49 PM CDT
Moon 10:32 PM CDT (8/19) 10:16 AM CDT (8/19)
Length of Visible Light 14h 32m
Length of Day
13h 35m
Waning Gibbous, 85% of the Moon is Illuminated
Aug 19
Waning Gibbous
Aug 23
Last Quarter
Aug 30
New
Sep 5
First Quarter
Sep 13
Full

Hourly Weather History & Observations

Time (CDT) Temp. Heat Index Dew Point Humidity Pressure Visibility Wind Dir Wind Speed Gust Speed Precip Events Conditions
12:53 AM 69.1 °F - 66.9 °F 93% 29.91 in 10.0 mi NNW 3.5 mph - N/A   Clear
1:53 AM 69.1 °F - 66.9 °F 93% 29.92 in 8.0 mi Calm Calm - N/A   Clear
2:53 AM 68.0 °F - 66.0 °F 93% 29.93 in 7.0 mi Calm Calm - N/A   Clear
3:53 AM 68.0 °F - 66.9 °F 96% 29.94 in 6.0 mi NNW 4.6 mph - N/A   Clear
4:53 AM 68.0 °F - 66.0 °F 93% 29.95 in 1.2 mi North 3.5 mph - N/A   Partly Cloudy
4:58 AM 68.0 °F - 66.0 °F 93% 29.97 in 0.5 mi North 3.5 mph - N/A Fog Fog
5:05 AM 68.0 °F - 66.0 °F 93% 29.97 in 1.0 mi North 3.5 mph - N/A   Mostly Cloudy
5:14 AM 69.1 °F - 66.9 °F 93% 29.97 in 3.0 mi NNE 3.5 mph - N/A   Overcast
5:53 AM 68.0 °F - 66.0 °F 93% 29.96 in 4.0 mi Calm Calm - N/A   Clear
6:03 AM 68.0 °F - 66.0 °F 93% 29.98 in 2.5 mi Calm Calm - N/A   Partly Cloudy
6:13 AM 68.0 °F - 66.0 °F 93% 29.98 in 3.0 mi Calm Calm - N/A   Scattered Clouds
6:32 AM 68.0 °F - 66.0 °F 93% 29.99 in 1.8 mi North 3.5 mph - N/A   Partly Cloudy
6:38 AM 68.0 °F - 66.0 °F 93% 29.99 in 0.8 mi North 3.5 mph - N/A   Mist
6:46 AM 68.0 °F - 66.0 °F 93% 29.99 in 0.2 mi North 3.5 mph - N/A Fog Fog
6:53 AM 68.0 °F - 66.0 °F 93% 29.97 in 0.2 mi North - - N/A Fog Fog
7:04 AM 68.0 °F - 66.0 °F 93% 29.99 in 1.0 mi North 3.5 mph - N/A   Mist
7:10 AM 68.0 °F - 66.9 °F 96% 30.00 in 2.0 mi North 3.5 mph - N/A   Scattered Clouds
7:21 AM 69.1 °F - 66.9 °F 93% 30.00 in 3.0 mi North 3.5 mph - N/A   Partly Cloudy
7:53 AM 71.1 °F - 69.1 °F 93% 29.98 in 2.0 mi North 4.6 mph - N/A   Scattered Clouds
8:53 AM 75.0 °F - 71.1 °F 87% 29.98 in 8.0 mi Calm Calm - N/A   Clear
9:53 AM 80.1 °F 83.6 °F 71.1 °F 74% 29.98 in 10.0 mi Calm Calm - N/A   Clear
10:53 AM 84.0 °F 89.6 °F 72.0 °F 67% 29.98 in 10.0 mi SE 5.8 mph - N/A   Partly Cloudy
11:53 AM 87.1 °F 94.5 °F 73.0 °F 63% 29.98 in 10.0 mi SE 4.6 mph - N/A   Scattered Clouds
12:53 PM 88.0 °F 96.5 °F 73.9 °F 63% 29.96 in 10.0 mi South 3.5 mph - N/A   Clear
1:53 PM 90.0 °F 101.3 °F 75.9 °F 63% 29.95 in 10.0 mi South 6.9 mph - N/A   Partly Cloudy
2:53 PM 91.0 °F 104.2 °F 77.0 °F 63% 29.93 in 10.0 mi SSE 5.8 mph - N/A   Clear
3:53 PM 90.0 °F 102.5 °F 77.0 °F 65% 29.91 in 10.0 mi ESE 6.9 mph - N/A   Partly Cloudy
4:53 PM 91.9 °F 107.3 °F 78.1 °F 64% 29.90 in 10.0 mi ESE 10.4 mph - N/A   Partly Cloudy
5:53 PM 91.0 °F 106.2 °F 78.1 °F 66% 29.89 in 10.0 mi SE 10.4 mph - N/A   Clear
6:53 PM 89.1 °F 103.2 °F 78.1 °F 70% 29.88 in 10.0 mi ESE 8.1 mph - N/A   Clear
7:53 PM 87.1 °F 99.8 °F 78.1 °F 74% 29.90 in 10.0 mi ESE 8.1 mph - N/A   Clear
8:53 PM 86.0 °F 96.9 °F 77.0 °F 74% 29.90 in 10.0 mi ESE 8.1 mph - N/A   Clear
9:53 PM 84.0 °F 94.8 °F 78.1 °F 82% 29.92 in 10.0 mi SE 9.2 mph - N/A   Partly Cloudy
10:53 PM 82.9 °F 91.8 °F 77.0 °F 82% 29.93 in 10.0 mi SE 5.8 mph - N/A   Clear
11:53 PM 82.9 °F 91.8 °F 77.0 °F 82% 29.92 in 10.0 mi SSE 6.9 mph - N/A   Clear